Hourly Data Report for June 01, 2006

TORONTO CITY
ONTARIO

43°40'00.000" N
79°24'00.000" W
112.50 m
6158355
71508
XTO

Download Data

Hourly Data (June 2006)
Hourly Data Report for June 1, 2006
TIME
LST
Temp Definition
°C
Dew Point Definition
°C
Rel Hum Definition
%
Precip. Amount Definition
mm

Wind Dir Definition
10's deg

Wind Spd Definition
km/h
Visibility Definition
km
Stn Press Definition
kPa
Hmdx Definition


Wind Chill Definition


Weather Definition


00:00 22.2 21.5 96   LegendMM LegendMM   100.29 31   LegendNANA
01:00 21.5 20.8 96   LegendMM LegendMM   100.22 30   LegendNANA
02:00 21.5 21.0 97   LegendMM LegendMM   100.18 30   LegendNANA
03:00 21.2 20.8 98   LegendMM LegendMM   100.19 29   LegendNANA
04:00 21.0 20.7 98   LegendMM LegendMM   100.16 29   LegendNANA
05:00 20.6 20.3 98   LegendMM LegendMM   100.16 28   LegendNANA
06:00 21.4 21.1 98   LegendMM LegendMM   100.18 30   LegendNANA
07:00 21.5 20.7 95   LegendMM LegendMM   100.17 30   LegendNANA
08:00 21.1 19.9 93   LegendMM LegendMM   100.17 29   LegendNANA
09:00 20.8 19.5 92   LegendMM LegendMM   100.18 28   LegendNANA
10:00 20.0 18.3 90   LegendMM LegendMM   100.19 26   LegendNANA
11:00 19.8 17.4 86   LegendMM LegendMM   100.20     LegendNANA
12:00 19.2 17.4 89   LegendMM LegendMM   100.21     LegendNANA
13:00 19.1 18.2 95   LegendMM LegendMM   100.23     LegendNANA
14:00 19.2 18.1 93   LegendMM LegendMM   100.22     LegendNANA
15:00 20.8 17.5 81   LegendMM LegendMM   100.17 26   LegendNANA
16:00 22.3 17.7 75   LegendMM LegendMM   100.10 28   LegendNANA
17:00 22.3 16.5 70   LegendMM LegendMM   100.07 27   LegendNANA
18:00 20.3 17.0 81   LegendMM LegendMM   100.07 26   LegendNANA
19:00 18.5 17.0 91   LegendMM LegendMM   100.11     LegendNANA
20:00 17.7 16.9 95   LegendMM LegendMM   100.11     LegendNANA
21:00 17.6 16.8 95   LegendMM LegendMM   100.15     LegendNANA
22:00 18.1 17.3 95   LegendMM LegendMM   100.16     LegendNANA
23:00 18.0 17.2 95   LegendMM LegendMM   100.14     LegendNANA

Notes on Data Quality.

Legend

  • E = Estimated
  • M = Missing
  • NA = Not Available*
  • [empty] = Indicates an unobserved value
Date modified: